Harlan, KY

7:58 AM EST on November 19, 2019 (GMT -0500)
Harlan

Weather History for KI35 - September, 2019

Change the Weather History Date:

Tuesday, September 10, 2019

  Actual Average (WUND) Record (WUND)
Temperature  
Mean Temperature 76 °F -  
Max Temperature 92 °F - - (-1)
Min Temperature 60 °F - - (-1)
Cooling Degree Days 11    
Growing Degree Days 26 (Base 50)    
Moisture  
Dew Point 64 °F    
Average Humidity 74    
Maximum Humidity 100    
Minimum Humidity 35    
Precipitation  
Precipitation 0.00 in - - ()
Sea Level Pressure  
Sea Level Pressure 30.27 in    
Wind  
Wind Speed 1 mph ()    
Max Wind Speed 8 mph    
Max Gust Speed -    
Visibility 9.1 miles    
Events      
Averages and records for this station are not official NWS values.
T = Trace of Precipitation, MM = Missing Value Source: Averaged Metar Reports

Daily Weather History Graph

Daily Weather History Graph

Search for Another Location

Airport or City:

Astronomy

Sep. 10, 2019 Rise Set
Actual Time 7:11 AM EDT 7:48 PM EDT
Civil Twilight 6:45 AM EDT 8:14 PM EDT
Nautical Twilight 6:14 AM EDT 8:45 PM EDT
Astronomical Twilight 5:42 AM EDT 9:17 PM EDT
Moon 6:18 PM EDT (9/10) 3:43 AM EDT (9/10)
Length of Visible Light 13h 29m
Length of Day
12h 37m
Waxing Gibbous, 89% of the Moon is Illuminated
Sep 10
Waxing Gibbous
Sep 14
Full
Sep 21
Last Quarter
Sep 28
New
Oct 5
First Quarter

Hourly Weather History & Observations

Time (EDT) Temp. Heat Index Dew Point Humidity Pressure Visibility Wind Dir Wind Speed Gust Speed Precip Events Conditions
12:15 AM 64.8 °F - 63.0 °F 94% 30.25 in 10.0 mi Calm Calm - N/A   Clear
12:55 AM 64.6 °F - 63.5 °F 96% 30.25 in 10.0 mi Calm Calm - N/A   Clear
1:15 AM 64.0 °F - 63.0 °F 96% 30.25 in 10.0 mi Calm Calm - N/A   Clear
1:35 AM 64.0 °F - 62.6 °F 95% 30.25 in 10.0 mi East 3.5 mph - N/A   Clear
1:55 AM 63.7 °F - 62.2 °F 95% 30.25 in 10.0 mi Calm Calm - N/A   Clear
2:15 AM 63.1 °F - 62.2 °F 97% 30.25 in 7.0 mi East 3.5 mph - N/A   Clear
2:35 AM 63.3 °F - 62.2 °F 96% 30.25 in 10.0 mi East 3.5 mph - N/A   Clear
2:55 AM 63.0 °F - 62.1 °F 97% 30.25 in 10.0 mi ESE 3.5 mph - N/A   Clear
3:15 AM 63.0 °F - 62.1 °F 97% 30.25 in 7.0 mi East 3.5 mph - N/A   Clear
3:35 AM 62.8 °F - 61.9 °F 97% 30.25 in 7.0 mi Calm Calm - N/A   Clear
3:55 AM 62.6 °F - 61.7 °F 97% 30.25 in 10.0 mi Calm Calm - N/A   Clear
4:15 AM 62.1 °F - 61.2 °F 97% 30.26 in 10.0 mi Calm Calm - N/A   Clear
4:35 AM 61.2 °F - 60.8 °F 99% 30.26 in 10.0 mi Calm Calm - N/A   Clear
4:55 AM 61.2 °F - 60.8 °F 99% 30.26 in 7.0 mi Calm Calm - N/A   Scattered Clouds
5:15 AM 61.2 °F - 61.0 °F 99% 30.26 in 5.0 mi Calm Calm - N/A   Mostly Cloudy
5:35 AM 61.0 °F - 60.8 °F 99% 30.26 in 7.0 mi Calm Calm - N/A   Mostly Cloudy
5:55 AM 60.6 °F - 60.3 °F 99% 30.27 in 7.0 mi Calm Calm - N/A   Scattered Clouds
6:15 AM 60.8 °F - 60.8 °F 100% 30.28 in 7.0 mi Calm Calm - N/A   Scattered Clouds
6:35 AM 60.8 °F - 60.4 °F 99% 30.28 in 5.0 mi Calm Calm - N/A   Scattered Clouds
6:55 AM 60.4 °F - 60.3 °F 99% 30.28 in 5.0 mi Calm Calm - N/A   Scattered Clouds
7:15 AM 60.4 °F - 60.3 °F 99% 30.28 in 5.0 mi Calm Calm - N/A   Scattered Clouds
7:35 AM 60.4 °F - 60.3 °F 99% 30.29 in 3.0 mi Calm Calm - N/A   Mostly Cloudy
7:55 AM 61.0 °F - 60.8 °F 99% 30.29 in 5.0 mi Calm Calm - N/A   Scattered Clouds
8:15 AM 61.7 °F - 61.2 °F 98% 30.30 in 5.0 mi Calm Calm - N/A   Clear
8:35 AM 63.0 °F - 62.1 °F 97% 30.30 in 7.0 mi Calm Calm - N/A   Clear
8:55 AM 64.8 °F - 62.4 °F 92% 30.31 in 7.0 mi Calm Calm - N/A   Clear
9:15 AM 66.6 °F - 63.3 °F 89% 30.31 in 10.0 mi Calm Calm - N/A   Clear
9:35 AM 67.8 °F - 63.9 °F 87% 30.31 in 10.0 mi Calm Calm - N/A   Clear
9:55 AM 70.5 °F - 64.9 °F 82% 30.31 in 10.0 mi Calm Calm - N/A   Clear
10:15 AM 73.9 °F - 65.7 °F 75% 30.31 in 10.0 mi Calm Calm - N/A   Clear
10:35 AM 76.5 °F - 66.6 °F 71% 30.32 in 10.0 mi ENE 3.5 mph - N/A   Clear
10:55 AM 79.2 °F - 66.6 °F 65% 30.32 in 10.0 mi Calm Calm - N/A   Clear
11:55 AM 84.7 °F 87.6 °F 67.3 °F 56% 30.31 in 10.0 mi ENE 3.5 mph - N/A   Clear
12:15 PM 85.5 °F 87.6 °F 66.2 °F 52% 30.31 in 10.0 mi Calm Calm - N/A   Clear
12:35 PM 85.5 °F 87.9 °F 66.7 °F 53% 30.30 in 10.0 mi Calm Calm - N/A   Clear
12:55 PM 86.7 °F 89.0 °F 66.2 °F 50% 30.29 in 10.0 mi Calm Calm - N/A   Clear
1:15 PM 88.2 °F 90.3 °F 65.3 °F 47% 30.29 in 10.0 mi WSW 4.6 mph - N/A   Clear
1:35 PM 89.2 °F 90.9 °F 64.9 °F 44% 30.29 in 10.0 mi Calm Calm - N/A   Clear
1:55 PM 90.1 °F 91.2 °F 63.3 °F 41% 30.29 in 10.0 mi West 5.8 mph - N/A   Clear
2:15 PM 91.2 °F 91.1 °F 61.0 °F 36% 30.28 in 10.0 mi West 3.5 mph - N/A   Clear
2:35 PM 91.6 °F 91.6 °F 61.3 °F 36% 30.27 in 10.0 mi West 8.1 mph - N/A   Clear
2:55 PM 91.9 °F 91.8 °F 60.3 °F 35% 30.27 in 10.0 mi Calm Calm - N/A   Clear
3:15 PM 91.6 °F 92.0 °F 61.9 °F 37% 30.26 in 10.0 mi West 8.1 mph - N/A   Clear
3:35 PM 92.5 °F 92.6 °F 61.5 °F 35% 30.26 in 10.0 mi WSW 5.8 mph - N/A   Clear
3:55 PM 91.6 °F 92.0 °F 62.2 °F 37% 30.25 in 10.0 mi SW 3.5 mph - N/A   Clear
4:15 PM 92.3 °F 93.1 °F 62.4 °F 37% 30.25 in 10.0 mi West 8.1 mph - N/A   Clear
4:35 PM 92.3 °F 93.1 °F 62.6 °F 37% 30.25 in 10.0 mi West 4.6 mph - N/A   Clear
4:55 PM 91.9 °F 92.9 °F 63.1 °F 38% 30.24 in 10.0 mi West 8.1 mph - N/A   Clear
5:15 PM 91.8 °F 93.0 °F 63.5 °F 39% 30.24 in 10.0 mi West 8.1 mph - N/A   Clear
5:35 PM 90.9 °F 92.3 °F 64.4 °F 41% 30.24 in 10.0 mi West 5.8 mph - N/A   Clear
5:55 PM 91.2 °F 92.9 °F 64.4 °F 41% 30.24 in 10.0 mi West 8.1 mph - N/A   Clear
6:15 PM 90.7 °F 92.8 °F 65.1 °F 43% 30.24 in 10.0 mi WSW 5.8 mph - N/A   Clear
6:35 PM 89.6 °F 91.5 °F 64.9 °F 44% 30.23 in 10.0 mi West 3.5 mph - N/A   Clear
6:55 PM 89.1 °F 91.0 °F 65.5 °F 45% 30.23 in 10.0 mi Calm Calm - N/A   Clear
7:15 PM 86.9 °F 89.9 °F 67.1 °F 52% 30.23 in 10.0 mi Calm Calm - N/A   Clear
7:35 PM 83.7 °F 87.2 °F 68.7 °F 61% 30.23 in 10.0 mi Calm Calm - N/A   Clear
7:55 PM 79.2 °F - 67.3 °F 67% 30.23 in 10.0 mi Calm Calm - N/A   Clear
8:15 PM 78.3 °F - 67.5 °F 69% 30.24 in 10.0 mi Calm Calm - N/A   Clear
8:35 PM 76.1 °F - 68.0 °F 76% 30.25 in 10.0 mi Calm Calm - N/A   Clear
8:55 PM 75.6 °F - 67.3 °F 75% 30.25 in 10.0 mi Calm Calm - N/A   Clear
9:15 PM 73.2 °F - 67.6 °F 83% 30.26 in 10.0 mi Calm Calm - N/A   Clear
9:35 PM 72.9 °F - 67.5 °F 83% 30.27 in 10.0 mi Calm Calm - N/A   Clear
9:55 PM 71.8 °F - 67.6 °F 87% 30.27 in 10.0 mi Calm Calm - N/A   Clear
10:15 PM 71.1 °F - 67.6 °F 89% 30.28 in 10.0 mi Calm Calm - N/A   Clear
10:35 PM 70.7 °F - 67.5 °F 89% 30.29 in 10.0 mi Calm Calm - N/A   Clear
10:55 PM 70.0 °F - 67.5 °F 92% 30.29 in 10.0 mi Calm Calm - N/A   Clear
11:15 PM 69.8 °F - 67.6 °F 93% 30.29 in 10.0 mi Calm Calm - N/A   Clear
11:35 PM 69.1 °F - 67.3 °F 94% 30.30 in 10.0 mi Calm Calm - N/A   Clear
11:55 PM 68.4 °F - 67.1 °F 96% 30.29 in 10.0 mi Calm Calm - N/A   Clear